| time (UTC) | temp F | wind direction | speed MPH | gust MPH | rain 1hr in | rain 24hr in | rain mn in | humidity % | barometer mb |
| 20260505041550 | 60 | 0 | 0.0 | 2.0 | 0.00 | 0.00 | 0.00 | 73 | 1007.8 |
| 20260505040043 | 60 | 111 | 0.0 | 1.0 | 0.00 | 0.00 | 0.00 | 72 | 1007.7 |
| 20260505034539 | 61 | 0 | 0.0 | 1.0 | 0.00 | 0.00 | 0.00 | 71 | 1007.7 |
| 20260505033038 | 62 | 0 | 0.0 | 1.0 | 0.00 | 0.00 | 0.00 | 70 | 1007.8 |
| 20260505031540 | 62 | 217 | 0.0 | 3.0 | 0.00 | 0.00 | 0.00 | 69 | 1008.0 |
| 20260505030055 | 63 | 0 | 0.0 | 2.0 | 0.00 | 0.00 | 0.00 | 68 | 1008.1 |
| 20260505024539 | 63 | 0 | 0.0 | 3.0 | 0.00 | 0.00 | 0.00 | 69 | 1008.1 |
| 20260505023040 | 63 | 143 | 0.0 | 2.0 | 0.00 | 0.00 | 0.00 | 68 | 1008.1 |
| 20260505021549 | 63 | 0 | 0.0 | 3.0 | 0.00 | 0.00 | 0.00 | 68 | 1008.3 |
| 20260505020050 | 64 | 0 | 0.0 | 3.0 | 0.00 | 0.00 | 0.00 | 67 | 1008.3 |
| 20260505014543 | 64 | 0 | 0.0 | 2.0 | 0.00 | 0.00 | 0.00 | 66 | 1008.2 |
| 20260505013043 | 64 | 0 | 0.0 | 3.0 | 0.00 | 0.00 | 0.00 | 66 | 1008.0 |
| 20260505011540 | 65 | 136 | 0.0 | 6.0 | 0.00 | 0.00 | 0.00 | 65 | 1007.9 |
| 20260505010103 | 64 | 212 | 0.0 | 2.0 | 0.00 | 0.00 | 0.00 | 67 | 1007.7 |
| 20260505004540 | 65 | 98 | 0.0 | 3.0 | 0.00 | 0.00 | 0.00 | 64 | 1007.3 |
| 20260505003046 | 66 | 131 | 0.0 | 3.0 | 0.00 | 0.00 | 0.00 | 64 | 1007.3 |
| 20260505001539 | 66 | 136 | 0.0 | 3.0 | 0.00 | 0.00 | 0.00 | 63 | 1007.1 |
| 20260505000044 | 67 | 236 | 1.0 | 6.0 | 0.00 | 0.00 | 0.00 | 62 | 1007.0 |
| 20260504234542 | 67 | 217 | 1.0 | 8.0 | 0.00 | 0.00 | 0.00 | 63 | 1006.9 |
| 20260504233046 | 67 | 0 | 0.0 | 1.0 | 0.00 | 0.00 | 0.00 | 64 | 1007.4 |
| 20260504231538 | 67 | 0 | 0.0 | 3.0 | 0.00 | 0.00 | 0.00 | 64 | 1007.3 |
| 20260504230048 | 68 | 234 | 1.0 | 5.0 | 0.00 | 0.00 | 0.00 | 62 | 1007.4 |
| 20260504224541 | 69 | 85 | 1.0 | 4.0 | 0.00 | 0.00 | 0.00 | 59 | 1007.5 |
| 20260504223040 | 69 | 185 | 0.0 | 6.0 | 0.00 | 0.00 | 0.00 | 58 | 1007.3 |
| 20260504221539 | 70 | 0 | 0.0 | 9.0 | 0.00 | 0.00 | 0.00 | 57 | 1007.4 |
| 20260504220050 | 71 | 139 | 0.0 | 5.0 | 0.00 | 0.00 | 0.00 | 55 | 1007.2 |
| 20260504214544 | 73 | 264 | 0.0 | 4.0 | 0.00 | 0.00 | 0.00 | 52 | 1007.3 |
| 20260504213036 | 74 | 151 | 0.0 | 6.0 | 0.00 | 0.00 | 0.00 | 52 | 1007.2 |
| 20260504211542 | 73 | 84 | 0.0 | 4.0 | 0.00 | 0.00 | 0.00 | 53 | 1007.4 |
| 20260504210040 | 71 | 76 | 1.0 | 5.0 | 0.00 | 0.00 | 0.00 | 55 | 1007.1 |
| 20260504204546 | 71 | 0 | 1.0 | 5.0 | 0.00 | 0.00 | 0.00 | 53 | 1007.3 |
| 20260504203042 | 72 | 90 | 2.0 | 7.0 | 0.00 | 0.00 | 0.00 | 53 | 1007.3 |
| 20260504201541 | 71 | 116 | 1.0 | 7.0 | 0.00 | 0.00 | 0.00 | 53 | 1007.5 |
| 20260504200049 | 72 | 262 | 1.0 | 9.0 | 0.00 | 0.00 | 0.00 | 53 | 1007.6 |
| 20260504194536 | 72 | 278 | 1.0 | 7.0 | 0.00 | 0.00 | 0.00 | 54 | 1007.7 |
| 20260504193044 | 73 | 0 | 0.0 | 6.0 | 0.00 | 0.00 | 0.00 | 52 | 1007.6 |
| 20260504191540 | 73 | 268 | 1.0 | 6.0 | 0.00 | 0.00 | 0.00 | 51 | 1007.9 |
| 20260504190039 | 73 | 171 | 2.0 | 7.0 | 0.00 | 0.00 | 0.00 | 53 | 1008.1 |
| 20260504184539 | 74 | 257 | 2.0 | 6.0 | 0.00 | 0.00 | 0.00 | 48 | 1008.2 |
| 20260504183038 | 74 | 175 | 1.0 | 5.0 | 0.00 | 0.00 | 0.00 | 48 | 1008.5 |
| 20260504181538 | 73 | 112 | 2.0 | 6.0 | 0.00 | 0.00 | 0.00 | 51 | 1008.6 |
| 20260504180038 | 73 | 293 | 1.0 | 4.0 | 0.00 | 0.00 | 0.00 | 52 | 1008.7 |
| 20260504174537 | 71 | 186 | 2.0 | 6.0 | 0.00 | 0.00 | 0.00 | 51 | 1008.9 |
| 20260504173036 | 71 | 229 | 0.0 | 8.0 | 0.00 | 0.00 | 0.00 | 53 | 1009.1 |
| 20260504171535 | 70 | 120 | 1.0 | 4.0 | 0.00 | 0.00 | 0.00 | 53 | 1009.4 |
| 20260504081544 | 45 | 0 | 0.0 | 0.0 | 0.00 | 0.00 | 0.00 | 75 | 1012.1 |